STARLINK-32203 (60331 NORAD) Tracking and Keplerian Element Data

This shows tracking and keplerian element data for the satellite.

Feedback or suggestion? Click here.




ElementValue
Catalog60331
NameSTARLINK-32203
Epoch Orbit1108
Epoch Day286.45863304
Epoch Year2024
RAAN299.7809
Inclination53.1588
Eccentricity0.0002836
Argument of Perigee80.1257
Mean Anonmoly280.0064
Mean Motion15.31944501
Decay Rate0.00028762
L11 60331U 24136C 24286.45863304 .00028762 00000+0 92790-3 0 9998
L22 60331 53.1588 299.7809 0002836 80.1257 280.0064 15.31944501 11084



Live tracking and technical data element details for STARLINK-32203 (NORAD 60331). STARLINK-32203 can be tracked NOW for your location showing map with azimuth and elevation plus other details from your city location.







IsCatalogInMostPopularTable: catalog: 60331, numindb: 7
Update: records affected: 1



GetName: 60331 STARLINK-32203

Hit Count: updated at: Fri, 06 Dec 2024 09:54:42 GMT